Probability
0 0 0 0 0 0 0 0 0 0 0 0 0 0 0 0 0 0 0 0 0 0 0 0 0 0 0 0 0 0 0 0 0 0 0 0 0 0 0 0 0 0 0
0 0 0 0 0 0 0 0 0 0 0 0 0 0 0 0 0 0 0 0 0 0 0 0 0 0 0 0 0 0 0 0 0 0 0 0 0 0 0 0 0 0 0
0 0 0 0 0 0 0 0 0 0 0 0 0 0 0 0 0 0 0 0 0 0 0 0 0 0 0 0 0 0 0 0 0 0 0 0 0 0 0 0 0 0 0
0 0 0 0 0 0 0 0 0 0 0 0 0 0 0 0 0 0 0 0 0 0 0 0 0 0 0 0 0 0 0 0 0 0 0 0 0 0 0 0 0 0 0
0 0 0 0 0 0 0 0 0 0 0 0 0 0 0 0 0 0 0 0 0 0 0 0 0 0 0 0 0 0 0 0 0 0 0 0 0 0 0 0 0 0 0
0 0 0 0 0 0 0 0 0 0 0 0 0 0 0 0 0 0 0 0 0 0 0 0 0 0 0 0 0 0 0 0 0 0 0 0 0 0 0 0 0 0 0
0 0 0 0 0 0 0 0 0 0 0 0 0 0 0 0 0 0 0 0 0 0 0 0 0 0 0 0 0 0 0 0 0 0 0 0 0 0 0 0 0 0 0
0 0 0 0 0 0 0 0 0 0 0 0 0 0 0 0 0 0 0 0 0 0 0 0 0 0 0 0 0 0 0 0 0 0 0 0 0 0 0 0 0 0 0
0 0 0 0 0 0 0 0 0 0 0 0 0 0 0 0 0 0 0 0 0 0 0 0 0 0 0 0 0 0 0 0 0 0 0 0 0 0 0 0 0 0 0
0 0 0 0 0 0 0 0 0 0 0 0 0 0 0 0 0 0 0 0 0 0 0 0 0 0 0 0 0 0 0 0 0 0 0 0 0 0 0 0 0 0 0
0 0 0 0 0 0 0 0 0 0 0 0 0 0 0 0 0 0 0 0 0 0 0 0 0 0 0 0 0 0 0 0 0 0 0 0 0 0 0 0 0 0 0
0 0 0 0 0 0 0 0 0 0 0 0 0 0 0 0 0 0 0 0 0 0 0 0 0 0 0 0 0 0 0 0 0 0 0 0 0 0 0 0 0 0 0
0 0 0 0 0 0 0 0 0 0 0 0 0 0 0 0 0 0 0 0 0 0 0 0 0 0 0 0 0 0 0 0 0 0 0 0 0 0 0 0 0 0 0
0 0 0 0 0 0 0 0 0 0 0 0 0 0 0 0 0 0 0 0 0 0 0 0 0 0 0 0 0 0 0 0 0 0 0 0 0 0 0 0 0 0 0
0 0 0 0 0 0 0 0 0 0 0 0 0 0 0 0 0 0 0 0 0 0 0 0 0 0 0 0 0 0 0 0 0 0 0 0 0 0 0 0 0 0 0
0 0 0 0 0 0 0 0 0 0 0 0 0 0 0 0 0 0 0 0 0 0 0 0 0 0 0 0 0 0 0 0 0 0 0 0 0 0 0 0 0 0 0
0 0 0 0 0 0 0 0 0 0 0 0 0 0 0 0 0 0 0 0 0 0 0 0 0 0 0 0 0 0 0 0 0 0 0 0 0 0 0 0 0 0 0
0 0 0 0 0 0 0 0 0 0 0 0 0 0 0 0 0 0 0 0 0 0 0 0 0 0 0 0 0 0 0 0 0 0 0 0 0 0 0 0 0 0 0
0 0 0 0 0 0 0 0 0 0 0 0 0 0 0 0 0 0 0 0 0 0 0 0 0 0 0 0 0 0 0 0 0 0 0 0 0 0 0 0 0 0 0
0 0 0 0 0 0 0 0 0 0 0 0 0 0 0 0 0 0 0 0 0 0 0 0 0 0 0 0 0 0 0 0 0 0 0 0 0 0 0 0 0 0 0
0 0 0 0 0 0 0 0 0 0 0 0 0 0 0 0 0 0 0 0 0 0 0 0 0 0 0 0 0 0 0 0 0 0 0 0 0 0 0 0 0 0 0
0 0 0 0 0 0 0 0 0 0 0 0 0 0 0 0 0 0 0 0 0 0 0 0 0 0 0 0 0 0 0 0 0 0 0 0 0 0 0 0 0 0 0
0 0 0 0 0 0 0 0 0 0 0 0 0 0 0 0 0 0 0 0 0 0 0 0 0 0 0 0 0 0 0 0 0 0 0 0 0 0 0 0 0 0 0
0 0 0 0 0 0 0 0 0 0 0 0 0 0 0 0 0 0 0 0 0 0 0 0 0 0 0 0 0 0 0 0 0 0 0 0 0 0 0 0 0 0 0
0 0 0 0 0 0 0 0 0 0 0 0 0 0 0 0 0 0 0 0 0 0 0 0 0 0 0 0 0 0 0 0 0 0 0 0 0 0 0 0 0 0 0
0 0 0 0 0 0 0 0 0 0 0 0 0 0 0 0 0 0 0 0 0 0 0 0 0 0 0 0 0 0 0 0 0 0 0 0 0 0 0 0 0 0 0
Wind_Speed
12 12 11 12 11 11 11 11 11 10 11 12 11 11 11 10 9 8 7 8 7 5 5 5 5 4 3 3 3 3 3 3 5 4 3 3 4 5 7 5 6 6 7
10 10 11 10 11 11 11 10 10 10 10 11 11 11 10 10 10 10 9 9 8 8 7 6 5 4 4 3 3 4 4 4 4 6 4 3 5 5 6 6 6 6 6
9 10 10 11 11 11 10 10 10 10 10 10 10 10 10 10 10 9 9 9 8 8 7 7 6 5 5 4 4 4 4 4 4 5 5 3 4 4 4 6 6 6 7
9 10 11 11 11 10 10 10 10 10 10 10 10 9 9 9 9 9 8 8 7 6 6 6 6 7 6 6 5 5 4 4 4 4 5 4 4 4 3 5 6 4 6
9 10 10 9 9 9 9 9 9 9 9 9 9 8 7 7 8 9 8 8 7 6 5 5 6 7 8 6 4 5 4 4 3 4 5 4 4 4 4 4 6 6 6
10 9 8 8 9 9 9 9 9 9 8 8 8 8 8 7 11 14 10 7 7 6 5 4 4 6 8 9 10 9 7 5 4 4 4 5 6 5 5 5 6 6 6
9 8 9 9 9 9 9 10 9 9 8 8 7 8 8 7 12 13 13 7 6 6 5 4 3 4 5 4 7 9 8 10 9 5 5 6 6 5 5 6 5 6 7
9 9 9 9 9 9 9 9 9 7 8 7 7 7 6 6 11 12 12 7 5 5 5 5 4 4 4 4 4 4 5 6 7 5 5 6 6 6 5 5 6 6 5
10 10 10 10 10 10 10 9 7 7 6 6 6 7 6 5 9 11 10 5 4 4 4 4 4 4 7 7 4 4 5 5 8 10 11 10 12 13 10 4 4 5 6
10 10 9 10 10 10 9 8 6 6 6 6 5 5 6 5 8 9 10 4 4 3 2 3 5 5 7 7 4 4 5 5 4 4 6 7 6 7 10 4 3 4 5
8 9 9 8 9 9 8 6 7 7 7 6 5 4 4 4 6 9 9 4 4 4 3 3 3 7 8 8 6 4 7 6 2 3 3 3 3 3 4 4 3 4 4
10 10 9 8 8 8 9 7 7 8 7 6 5 3 2 2 4 6 8 6 5 4 3 3 3 6 6 7 5 7 10 7 1 2 2 3 3 4 4 4 5 5 5
11 10 9 8 7 8 9 9 7 6 6 5 5 4 2 2 2 5 6 6 5 3 2 4 4 5 4 4 6 8 6 2 1 2 3 3 3 4 4 3 4 4 5
12 10 9 9 8 7 6 6 6 6 6 5 5 4 3 2 2 2 3 3 3 2 1 1 2 2 2 3 4 3 2 2 2 3 3 3 2 2 3 3 3 2 3
12 10 9 8 8 7 5 4 5 4 6 7 5 5 5 4 5 6 4 3 3 2 2 1 1 0 1 1 2 2 2 2 3 2 3 3 3 3 3 2 2 1 2
12 10 8 7 7 7 7 6 6 6 7 7 7 6 4 4 6 6 5 4 3 3 2 1 1 1 2 2 2 2 2 3 3 3 3 3 3 3 4 3 2 2 3
12 10 8 8 8 7 7 7 6 5 7 7 7 7 5 5 5 4 3 2 2 2 1 1 2 2 2 2 3 3 3 3 3 3 3 3 3 3 3 3 3 2 3
11 11 10 8 7 7 6 6 6 6 4 2 3 5 5 4 4 3 3 3 1 1 1 2 2 2 2 2 3 3 3 3 2 3 3 3 3 3 3 3 3 3 3
10 8 8 7 7 6 6 6 5 5 5 3 2 2 3 3 3 3 3 2 2 2 2 2 2 2 2 3 3 3 3 3 3 3 3 3 3 3 3 3 3 6 4
8 13 11 8 7 7 6 6 5 5 4 3 3 2 2 2 1 1 1 1 2 2 2 3 3 3 3 3 3 3 3 3 3 3 3 3 3 3 4 4 3 3 3
9 10 13 9 6 6 6 5 5 5 4 3 2 2 3 2 2 2 2 2 2 2 3 3 3 3 3 2 3 3 4 4 3 3 3 3 3 3 3 3 3 3 3
8 8 7 7 6 6 5 5 5 4 4 3 2 1 2 1 1 2 2 2 2 2 3 3 3 3 3 3 3 3 4 4 4 3 4 3 3 3 3 3 3 2 2
9 9 7 6 6 8 6 4 4 4 3 3 2 2 1 1 2 2 2 2 2 2 2 2 3 3 3 3 4 4 4 5 4 4 4 4 4 3 3 3 3 3 3
9 9 8 7 6 5 5 4 4 3 3 3 2 2 2 2 2 2 2 2 2 2 2 2 3 4 5 4 3 4 4 5 5 4 6 5 4 4 3 3 3 3 3
8 8 7 6 6 5 5 4 3 3 3 2 2 2 2 2 2 2 2 2 3 3 4 3 3 4 5 6 6 5 8 11 10 6 4 4 5 4 4 4 3 3 3
7 7 6 5 5 5 4 4 3 3 2 2 2 2 2 2 2 2 2 2 3 3 4 3 4 5 6 6 7 9 12 12 11 11 5 4 4 4 4 3 4 3 3
Wind_Direction
183 184 183 184 182 177 180 183 180 173 170 173 175 174 174 174 172 171 170 167 170 172 174 181 194 181 182 188 186 190 199 190 239 268 253 265 271 276 289 288 284 283 288
180 178 180 178 175 178 180 179 175 173 174 174 173 173 176 176 175 176 176 174 176 181 185 184 197 186 195 195 196 207 212 207 220 266 278 270 263 271 277 284 288 286 280
172 173 175 176 177 180 179 174 172 171 170 169 171 175 177 176 177 180 177 177 182 186 185 188 195 187 205 208 210 215 219 223 219 246 273 267 271 274 284 284 281 282 286
168 173 177 179 179 176 171 168 169 168 168 171 175 176 176 174 176 176 174 176 180 185 186 190 192 196 208 210 214 219 219 226 229 244 266 273 269 270 269 281 291 278 283
168 174 178 172 166 162 162 163 162 164 168 168 167 168 168 170 176 174 174 175 177 182 189 197 203 210 218 218 219 218 212 221 230 244 263 276 278 282 274 270 286 292 281
169 173 165 159 158 160 160 158 158 161 161 160 167 168 171 179 183 182 173 173 177 182 194 204 214 220 233 241 248 246 233 228 232 236 255 266 273 269 272 276 285 298 297
165 162 159 159 160 161 157 156 160 163 158 162 168 169 176 181 180 183 180 170 176 184 189 194 209 224 236 237 253 259 259 260 260 254 252 258 267 266 272 279 276 279 281
162 160 160 159 157 155 155 159 161 159 162 166 168 170 169 176 178 181 179 167 172 183 190 195 204 220 228 234 231 240 248 254 261 259 244 254 258 263 258 271 281 284 272
167 166 164 160 156 156 159 160 156 153 155 158 161 161 164 174 179 178 168 160 173 189 194 195 204 217 245 256 241 246 260 264 272 275 277 282 288 295 301 304 301 298 298
173 166 160 158 157 160 159 153 146 147 150 146 145 156 163 169 178 177 166 157 170 182 190 208 226 239 257 263 241 237 261 265 259 279 286 294 298 303 310 302 278 285 291
153 146 148 151 152 149 143 139 139 135 133 134 135 139 151 162 175 179 173 162 173 176 190 209 229 254 265 271 271 243 265 282 250 255 269 278 286 286 286 278 258 253 269
140 141 143 142 139 137 134 133 135 136 135 136 132 127 127 149 163 181 184 182 173 171 196 208 229 257 270 279 281 282 289 299 289 275 276 276 278 280 279 278 272 260 251
136 138 137 132 131 136 139 138 135 136 138 143 144 147 150 146 170 179 183 185 186 176 199 225 244 261 274 278 284 293 302 301 282 278 276 272 263 265 275 286 286 283 281
136 136 136 135 131 129 132 139 141 146 145 147 152 155 153 156 170 175 178 180 185 188 174 224 268 297 320 305 305 310 305 268 273 261 267 267 273 280 279 278 286 302 310
133 134 133 133 134 128 120 128 140 154 161 159 166 162 161 179 201 190 173 175 175 177 140 110 100 121 273 282 286 286 285 294 293 280 280 286 292 296 294 288 275 280 282
135 137 136 134 131 128 122 102 91 117 133 138 146 151 165 173 176 181 184 179 175 174 132 158 209 232 246 260 271 278 278 275 273 277 279 280 286 289 292 294 284 273 283
140 140 136 136 136 136 134 131 120 94 100 114 127 135 136 143 150 161 163 149 160 147 134 194 223 237 250 257 259 258 262 267 269 271 272 274 278 281 287 290 290 286 286
131 134 135 137 137 137 137 136 136 137 130 101 102 119 123 129 136 145 143 115 139 153 191 216 232 240 247 253 256 260 266 273 270 271 270 270 270 272 279 284 283 277 284
129 131 129 128 127 128 128 127 128 130 131 129 110 107 113 114 117 133 127 139 189 216 225 234 239 243 247 250 255 257 258 262 263 264 265 265 264 262 268 274 277 289 290
123 130 129 128 126 127 128 129 130 132 133 137 146 152 131 107 126 165 168 183 203 224 230 239 245 246 249 250 253 255 259 261 262 258 261 262 261 258 263 267 269 274 275
124 129 127 124 127 131 132 134 136 138 142 148 165 187 180 165 181 199 210 216 219 229 235 240 245 249 249 249 248 251 255 259 254 253 257 259 260 261 261 261 262 261 270
124 125 126 127 127 128 130 131 134 139 147 153 163 191 200 154 188 217 230 237 235 234 234 236 243 242 239 241 244 249 254 257 255 251 253 256 256 257 258 258 259 260 267
122 121 119 120 124 132 126 127 134 141 149 158 169 185 199 206 220 230 238 244 245 249 245 240 247 253 249 245 239 236 243 250 249 243 247 254 254 254 251 250 250 257 263
122 124 125 125 124 126 131 135 138 145 152 165 181 198 210 218 229 243 249 251 254 257 252 247 250 256 260 261 254 247 245 251 246 239 235 241 247 251 247 244 244 245 252
120 122 125 129 131 133 135 139 146 153 162 177 192 206 218 230 241 252 254 254 258 262 264 260 257 259 262 263 263 260 267 271 268 252 226 227 236 239 240 240 238 242 244
117 120 122 126 130 136 141 148 157 164 175 191 202 211 225 238 247 252 256 256 260 265 267 264 259 260 264 266 266 271 276 276 273 267 244 218 223 231 228 231 231 234 237